This is the latest recevied weather packets stored in our database for station/object YO8PIC-4. If no packets are shown the sender has not sent any weather packets the latest 10 day(s).
| Time | Temp. | Humidity | Pressure | Rain* | Wind** | Luminosity | Snow |
|---|---|---|---|---|---|---|---|
| 1777253594 | 23.33° C | 54% | 1020.6 hPa | - | - | - | - |
| 1777252994 | 23.33° C | 55% | 1020.6 hPa | - | - | - | - |
| 1777252394 | 23.33° C | 55% | 1020.5 hPa | - | - | - | - |
| 1777251794 | 23.33° C | 55% | 1020.4 hPa | - | - | - | - |
| 1777251194 | 23.33° C | 55% | 1020.4 hPa | - | - | - | - |
| 1777250594 | 23.33° C | 55% | 1020.5 hPa | - | - | - | - |
| 1777249994 | 23.33° C | 54% | 1020.4 hPa | - | - | - | - |
| 1777249393 | 23.33° C | 54% | 1020.4 hPa | - | - | - | - |
| 1777248793 | 23.33° C | 55% | 1020.3 hPa | - | - | - | - |
| 1777248193 | 23.33° C | 54% | 1020.2 hPa | - | - | - | - |
| 1777247593 | 23.33° C | 54% | 1020.2 hPa | - | - | - | - |
| 1777246993 | 23.33° C | 55% | 1020.1 hPa | - | - | - | - |
| 1777246393 | 23.33° C | 54% | 1020.1 hPa | - | - | - | - |
| 1777245793 | 23.33° C | 54% | 1020.1 hPa | - | - | - | - |
| 1777245193 | 23.33° C | 49% | 1020 hPa | - | - | - | - |
| 1777244592 | 23.89° C | 55% | 1020 hPa | - | - | - | - |
| 1777243992 | 24.44° C | 54% | 1019.9 hPa | - | - | - | - |
| 1777243392 | 26.67° C | 48% | 1019.8 hPa | - | - | - | - |
| 1777242792 | 26.67° C | 48% | 1019.7 hPa | - | - | - | - |
| 1777242192 | 26.67° C | 48% | 1019.8 hPa | - | - | - | - |
| 1777241592 | 26.67° C | 49% | 1019.7 hPa | - | - | - | - |
| 1777240992 | 26.67° C | 48% | 1019.5 hPa | - | - | - | - |
| 1777240392 | 26.67° C | 48% | 1019.5 hPa | - | - | - | - |
| 1777239791 | 26.67° C | 49% | 1019.5 hPa | - | - | - | - |
| 1777239191 | 26.67° C | 48% | 1019.4 hPa | - | - | - | - |
* Rain since midnight (hover to see other rain measurements)
** Current wind speed in m/s (hover to see current wind gust speed)